Regional Weather Roundup
Issued by NWS Wakefield, VA

Home | Current Version | Previous Version | Text Only | Print | Product List | Glossary On
Versions: 1 2 3 4 5 6 7 8 9 10 11 12 13 14 15 16 17 18 19 20 21 22 23 24 25 26 27 28 29 30 31 32 33 34 35 36 37 38 39 40 41 42 43 44 45 46 47 48 49 50
000
ASUS41 KAKQ 112010
RWRAKQ

REGIONAL WEATHER ROUNDUP
NATIONAL WEATHER SERVICE WAKEFIELD VA
400 PM EDT FRI JUL 11 2014

Note: "fair" indicates few or no clouds below 12,000 feet with no
significant weather and/or obstructions to visibility. * = Denotes
station may not report precipitation (e.g., rain,snow,etc.),
thunder or fog.

VAZ042-051-052>054-056-112100-
NORTHERN VIRGINIA

CITY           SKY/WX    TMP DP  RH WIND       PRES   REMARKS
WASH NATIONAL  PTSUNNY   87  64  46 CALM      30.18S
DULLES         MOSUNNY   85  61  44 CALM      30.18S
FORT BELVOIR   DRIZZLE   82  66  58 E3        30.18S
QUANTICO       MOSUNNY   83  67  58 S5        30.19S
FREDERICKSBRG* SUNNY     88  64  45 E6        30.17S
STAFFORD*      MOSUNNY   85  65  49 E5        30.22S
WARRENTON      MOSUNNY   86  73  64 E6        30.18F
CULPEPER*      MOSUNNY  N/A N/A N/A CALM      30.19S
MANASSAS*      NOT AVBL
LEESBURG*      SUNNY     86  66  51 SE3       30.19F
WINCHESTER     CLOUDY    82  61  47 E8        30.19F
$$

VAZ048-049-060>072-079>083-112100-
CENTRAL AND SOUTH CENTRAL VIRGINIA...AND NORTH CENTRAL NORTH CAROLINA

CITY           SKY/WX    TMP DP  RH WIND       PRES   REMARKS
RICHMOND       PTSUNNY   87  63  44 VRB3      30.17S
CHESTERFIELD*  PTCLDY    86  63  45 SE5       30.19F
HANOVER        MOSUNNY   88  65  46 VRB6      30.18F
TAPPAHANNOCK*  MOSUNNY   86  60  40 NE6       30.18S
CHARLOTTSVILLE MOSUNNY   84  64  50 NE5       30.19S
ORANGE*        MOSUNNY   86  64  48 N5        30.20F
LOUISA*        SUNNY     84  64  51 CALM      30.18S
FARMVILLE*     PTSUNNY   88  64  45 NE7       30.15F
SOUTH HILL*    PTSUNNY   82  66  57 SE3       30.24S
ROANOKE RAPIDS MOCLDY    82  68  61 CALM      30.18S
RALEIGH        PTSUNNY   83  65  54 E3        30.17F
$$

VAZ088>098-112100-
SOUTHEAST VIRGINIA

CITY           SKY/WX    TMP DP  RH WIND       PRES   REMARKS
NORFOLK        CLOUDY    79  70  74 NE12      30.17S
VIRGINIA BEACH PTSUNNY   82  68  62 NE9       30.16S
NORFOLK NAVAL  CLOUDY    80  71  74 NE10      30.19S
WEST POINT*    PTSUNNY   87  65  48 E3        30.19S
NEWPORT NEWS   CLOUDY    83  71  67 E12       30.18R
LANGLEY AFB    CLOUDY    79  72  79 NE9       30.18R
FORT EUSTIS    NOT AVBL
WILLIAMSBURG*  CLOUDY    82  73  74 CALM      30.18S
FRANKLIN*      CLOUDY    81  70  69 CALM      30.17S
WAKEFIELD      CLOUDY    84  69  60 CALM      30.18R
$$

VAZ020-022-025-037-045-112100-
WESTERN AND SOUTHWEST VIRGINIA

CITY           SKY/WX    TMP DP  RH WIND       PRES   REMARKS
STAUNTON*      PTSUNNY   80  63  57 E3        30.23F
HOT SPRINGS VA PTSUNNY   71  55  56 SE6       30.35S
LYNCHBURG      MOSUNNY   83  65  54 VRB3      30.20F
DANVILLE       MOSUNNY   86  65  49 VRB5      30.19F
MARTINSVILLE   MOSUNNY   90  64  43 E3        30.21F
ROANOKE        MOSUNNY   83  63  50 S7        30.22F
BLACKSBURG     SUNNY     82  66  57 SE9       30.27R
DUBLIN*        SUNNY     86  50  29 CALM      30.24S
MARION*        SUNNY     85  60  41 W3        30.28S
HILLSVILLE*    CLOUDY    77  65  66 E12       30.27R
RICHLANDS*     MOCLDY    84  58  39 NW6       30.26S
WISE*          MOSUNNY   82  54  36 SE3       30.28S
ABINGDON*      SUNNY     88  50  27 CALM      30.23S
$$

MDZ021>025-VAZ099-100-112100-
SOUTHERN MARYLAND AND THE DELMARVA PENINSULA

CITY           SKY/WX    TMP DP  RH WIND       PRES   REMARKS
PATUXENT RIVER MOSUNNY   84  67  56 N5        30.17S
BAY BRIDGE APT   N/A     81  66  61 N6        30.18S
LEONARDTOWN    SUNNY     81  63  54 E3        30.19S
DOVER          SUNNY     82  70  67 E10       30.17S
GEORGETOWN     MOSUNNY   82  67  60 E15G21    30.19S
EASTON         CLOUDY    84  72  65 N9        30.21S
CAMBRIDGE      SUNNY     84  64  51 N5        30.17S
SALISBURY      MOSUNNY   84  67  56 E9        30.18S
OCEAN CITY     PTSUNNY   77  67  71 E10       30.19S
WALLOPS ISLAND PTSUNNY   78  68  71 E8        30.19R
ACCOMACK*        N/A     79  68  69 E5        30.18R
$$

NCZ012>017-030>032-112100-
EASTERN NORTH CAROLINA

CITY           SKY/WX    TMP DP  RH WIND       PRES   REMARKS
ELIZABETH CITY CLOUDY    82  71  69 VRB3      30.16S
AHOSKIE*       PTSUNNY   79  69  70 CALM      30.18S
EDENTON*       CLOUDY    80  71  72 N5        30.16F
CURRITUCK*     CLOUDY    81  69  67 E7        30.17F
KILL DEVIL HLS CLOUDY    76  72  86 N7        30.16R
MANTEO         NOT AVBL
CAPE HATTERAS  CLOUDY    83  71  67 SW7       30.16F
GOLDSBORO      CLOUDY    80  75  86 VRB5      30.16R
WASHINGTON     CLOUDY   N/A N/A N/A NW3       30.17S
GREENVILLE     CLOUDY    81  72  74 N5        30.19S
NEW BERN       CLOUDY    84  72  65 W3        30.17S
WILMINGTON     CLOUDY    80  71  74 CALM      30.17R
$$

VAZ048-112100-
ELSEWHERE

CITY           SKY/WX    TMP DP  RH WIND       PRES   REMARKS
HARRISBURG PA  MOSUNNY   88  61  40 CALM      30.18S
BALTIMORE      MOSUNNY   85  62  46 E8        30.17S
ANNAPOLIS      SUNNY     83  68  60 E5        30.18S
ANDREWS AFB    SUNNY     83  66  56 CALM      30.19R
WILMINGTON DE  MOSUNNY   87  60  40 VRB6      30.17F
PHILADELPHIA   PTSUNNY   87  55  33 CALM      30.17S
WILDWOOD NJ*   MOSUNNY   77  66  69 E10       30.20S
ATLANTIC CITY  SUNNY     82  63  52 E12       30.18S
HENDERSON NC   PTSUNNY   83  64  51 E5        30.19S
GREENSBORO     MOSUNNY   85  65  51 VRB6      30.18F
ROCKY MOUNT    CLOUDY    82  69  64 VRB3      30.18S
FAYETTEVILLE   CLOUDY    82  70  66 E3        30.17S
CHARLOTTE      PTSUNNY   85  65  51 E8        30.17F
$$

VAZ100-112100-
MARINE

STATION/POSITION TIME  TEMP    WIND        PRES    WAVE   SWELL
                       AIR SEA DIR/SP/G            HT/PER HT/PER
                 (UTC) (F)     (DEG/KT/KT) (MB)    (FT/S) (FT/S)
44066 TX TWR #4  2000   70 71   40/ 10/ 12 1021.8R   2/ 7   2/ 7
CAPE MAY NJ      2000   75 73  100/  8/ 12 1022.0R
LEWES DE         2000   73 72   90/  9/ 10 1021.7F
15NM E FENWICK I 2000   73 74              1022.3R   2/ 6
OCEAN-CITY-INLET 2000   75 74   80/  5/  7 1022.1S
WACHAPREAGUE VA  2000   75 81   70/  8/ 10 1021.9F
THOMAS POINT MD  2000   80 79   20/  2/  2 1022.5R
GOOSES REEF MD   2000   78     350/  6/  6 1022.5S
COVE POINT MD    2000   77     340/  7/  9 1021.9S
SOLOMONS ISLAND  2000      81                N/A
BISHOPS HEAD MD  2000   78 80  260/  6/  7 1021.8S
PINEY POINT MD   2000          230/  3/  4   N/A
POTOMAC MD       2000   78     170/  4/  4 1021.4R
CAMBRIDGE MD     2000   80 80  330/  5/ 10 1021.2F
LEWISETTA VA     2000   78 81  110/  4/  5 1021.9S
RAPPAHANNOCK LGT 2000           30/  2/  3 1022.5S
STINGRAY PT      2000   77      10/  4/  6 1021.2S
YORK RVR RNG VA  2000   76      70/ 11/ 12 1021.3R
YORKTOWN VA      2000   78 80  100/ 11/ 12 1021.6S
JAMESTOWN VA     2000   80     190/  2/  4   N/A
DOMINION TERM VA 2000   78      80/  8/ 10 1021.8S
KIPTOPEKE VA     2000      80  100/  8/ 10   N/A
CHES BAY BRIDGE  2000   74 79   30/ 12/ 14 1021.1S
CAPE HENRY VA    2000   76      50/ 11/ 13 1020.5S
WILLOUBY STN VA  2000   82      30/ 11/ 12 1021.2R
S CRANEY ISL VA  2000          360/ 10/ 11 1021.7R
CAPE HENRY BUOY  2000      76                N/A     2/ 6
1ST LANDING BUOY 2000   75      70/ 12/ 16 1021.4R
CAPE CHARLES BUO 2000      75                N/A     2/ 6
OFFSHORE WE BUOY 2000      76                N/A     2/ 6
64NM E OF VA BCH 2000   76 77   10/  8/ 10 1021.1F   2/ 6   2/ 6
DUCK PIER NC     2000   74 72   30/  6/  7 1020.7R
44056 DUCK FRF   2000                        N/A     2/ 6
OREGON INLET NC  2000   78 82   20/  9/ 11 1021.4R
HATTERAS NC      2000   81 83  230/  5/  8 1021.7F
DIAMOND SHLS NC  2000          VRB  8/ 10  1021.2F   2/ 6   2/ 6
CAPE LOOKOUT NC  1900   79     240/  4/  5 1021.7R
$$


USA.gov is the U.S. government's official web portal to all federal, state and local government web resources and services.